Year,Month,Day,Hour,Minute,Value (Times are PST for temperature in C)
2010,08,13,01,16,9.10
2010,08,13,01,17,9.10
2010,08,13,01,18,9.10
2010,08,13,01,19,9.10
2010,08,13,01,20,9.10
2010,08,13,01,21,9.10
2010,08,13,01,22,9.10
2010,08,13,01,23,9.10
2010,08,13,01,24,9.10
2010,08,13,01,25,9.10
2010,08,13,01,26,9.10
2010,08,13,01,27,9.10
2010,08,13,01,28,9.10
2010,08,13,01,29,9.10
2010,08,13,01,30,9.10
2010,08,13,01,31,9.10
2010,08,13,01,32,9.10
2010,08,13,01,33,9.10
2010,08,13,01,34,9.10
2010,08,13,01,35,9.10
2010,08,13,01,36,9.10
2010,08,13,01,37,9.10
2010,08,13,01,38,9.10
2010,08,13,01,39,9.10
2010,08,13,01,40,9.10
2010,08,13,01,41,9.10
2010,08,13,01,42,9.10
2010,08,13,01,43,9.10
2010,08,13,01,44,9.10
2010,08,13,01,45,9.10
2010,08,13,01,46,9.10
2010,08,13,01,47,9.10
2010,08,13,01,48,9.10
2010,08,13,01,49,9.10
2010,08,13,01,50,9.10
2010,08,13,01,51,9.10
2010,08,13,01,52,9.10
2010,08,13,01,53,9.10
2010,08,13,01,54,9.10
2010,08,13,01,55,9.10
2010,08,13,01,56,9.10
2010,08,13,01,57,9.10
2010,08,13,01,58,9.10
2010,08,13,01,59,9.10
2010,08,13,02,00,9.10
2010,08,13,02,01,9.10
2010,08,13,02,02,9.10
2010,08,13,02,03,9.10
2010,08,13,02,04,9.10
2010,08,13,02,05,9.10
2010,08,13,02,06,9.10
2010,08,13,02,07,9.10
2010,08,13,02,08,9.10
2010,08,13,02,09,9.10
2010,08,13,02,10,9.10
2010,08,13,02,11,9.10
2010,08,13,02,12,9.10
2010,08,13,02,13,9.10
2010,08,13,02,14,9.10
2010,08,13,02,15,9.10
2010,08,13,02,16,9.20
2010,08,13,02,17,9.20
2010,08,13,02,18,9.20
2010,08,13,02,19,9.20
2010,08,13,02,20,9.20
2010,08,13,02,21,9.20
2010,08,13,02,22,9.20
2010,08,13,02,23,9.20
2010,08,13,02,24,9.20
2010,08,13,02,25,9.20
2010,08,13,02,26,9.20
2010,08,13,02,27,9.20
2010,08,13,02,28,9.20
2010,08,13,02,29,9.20
2010,08,13,02,30,9.20
2010,08,13,02,31,9.20
2010,08,13,02,32,9.20
2010,08,13,02,33,9.20
2010,08,13,02,34,9.20
2010,08,13,02,35,9.20
2010,08,13,02,36,9.20
2010,08,13,02,37,9.20
2010,08,13,02,38,9.20
2010,08,13,02,39,9.20
2010,08,13,02,40,9.20
2010,08,13,02,41,9.20
2010,08,13,02,42,9.20
2010,08,13,02,43,9.20
2010,08,13,02,44,9.20
2010,08,13,02,45,9.20
2010,08,13,02,46,9.30
2010,08,13,02,47,9.30
2010,08,13,02,48,9.30
2010,08,13,02,49,9.30
2010,08,13,02,50,9.30
2010,08,13,02,51,9.30
2010,08,13,02,52,9.30
2010,08,13,02,53,9.30
2010,08,13,02,54,9.30
2010,08,13,02,55,9.30
2010,08,13,02,56,9.30
2010,08,13,02,57,9.30
2010,08,13,02,58,9.30
2010,08,13,02,59,9.30
2010,08,13,03,00,9.30
2010,08,13,03,01,9.40
2010,08,13,03,02,9.40
2010,08,13,03,03,9.40
2010,08,13,03,04,9.40
2010,08,13,03,05,9.40
2010,08,13,03,06,9.40
2010,08,13,03,07,9.40
2010,08,13,03,08,9.40
2010,08,13,03,09,9.40
2010,08,13,03,10,9.40
2010,08,13,03,11,9.40
2010,08,13,03,12,9.40
2010,08,13,03,13,9.40
2010,08,13,03,14,9.40
2010,08,13,03,15,9.40
2010,08,13,03,16,9.50
2010,08,13,03,17,9.50
2010,08,13,03,18,9.50
2010,08,13,03,19,9.50
2010,08,13,03,20,9.50
2010,08,13,03,21,9.50
2010,08,13,03,22,9.50
2010,08,13,03,23,9.50
2010,08,13,03,24,9.50
2010,08,13,03,25,9.50
2010,08,13,03,26,9.50
2010,08,13,03,27,9.50
2010,08,13,03,28,9.50
2010,08,13,03,29,9.50
2010,08,13,03,30,9.50
2010,08,13,03,31,9.70
2010,08,13,03,32,9.70
2010,08,13,03,33,9.70
2010,08,13,03,34,9.70
2010,08,13,03,35,9.70
2010,08,13,03,36,9.70
2010,08,13,03,37,9.70
2010,08,13,03,38,9.70
2010,08,13,03,39,9.70
2010,08,13,03,40,9.70
2010,08,13,03,41,9.70
2010,08,13,03,42,9.70
2010,08,13,03,43,9.70
2010,08,13,03,44,9.70
2010,08,13,03,45,9.70
2010,08,13,03,46,9.70
2010,08,13,03,47,9.70
2010,08,13,03,48,9.70
2010,08,13,03,49,9.70
2010,08,13,03,50,9.70
2010,08,13,03,51,9.70
2010,08,13,03,52,9.70
2010,08,13,03,53,9.70
2010,08,13,03,54,9.70
2010,08,13,03,55,9.70
2010,08,13,03,56,9.70
2010,08,13,03,57,9.70
2010,08,13,03,58,9.70
2010,08,13,03,59,9.70
2010,08,13,04,00,9.70
2010,08,13,04,01,9.70
2010,08,13,04,02,9.70
2010,08,13,04,03,9.70
2010,08,13,04,04,9.70
2010,08,13,04,05,9.70
2010,08,13,04,06,9.70
2010,08,13,04,07,9.70
2010,08,13,04,08,9.70
2010,08,13,04,09,9.70
2010,08,13,04,10,9.70
2010,08,13,04,11,9.70
2010,08,13,04,12,9.70
2010,08,13,04,13,9.70
2010,08,13,04,14,9.70
2010,08,13,04,15,9.70
2010,08,13,04,16,9.30
2010,08,13,04,17,9.30
2010,08,13,04,18,9.30
2010,08,13,04,19,9.30
2010,08,13,04,20,9.30
2010,08,13,04,21,9.30
2010,08,13,04,22,9.30
2010,08,13,04,23,9.30
2010,08,13,04,24,9.30
2010,08,13,04,25,9.30
2010,08,13,04,26,9.30
2010,08,13,04,27,9.30
2010,08,13,04,28,9.30
2010,08,13,04,29,9.30
2010,08,13,04,30,9.30
2010,08,13,04,31,9.20
2010,08,13,04,32,9.20
2010,08,13,04,33,9.20
2010,08,13,04,34,9.20
2010,08,13,04,35,9.20
2010,08,13,04,36,9.20
2010,08,13,04,37,9.20
2010,08,13,04,38,9.20
2010,08,13,04,39,9.20
2010,08,13,04,40,9.20
2010,08,13,04,41,9.20
2010,08,13,04,42,9.20
2010,08,13,04,43,9.20
2010,08,13,04,44,9.20
2010,08,13,04,45,9.20
2010,08,13,04,46,9.20
2010,08,13,04,47,9.20
2010,08,13,04,48,9.20
2010,08,13,04,49,9.20
2010,08,13,04,50,9.20
2010,08,13,04,51,9.20
2010,08,13,04,52,9.20
2010,08,13,04,53,9.20
2010,08,13,04,54,9.20
2010,08,13,04,55,9.20
2010,08,13,04,56,9.20
2010,08,13,04,57,9.20
2010,08,13,04,58,9.20
2010,08,13,04,59,9.20
2010,08,13,05,00,9.20
2010,08,13,05,01,9.00
2010,08,13,05,02,9.00
2010,08,13,05,03,9.00
2010,08,13,05,04,9.00
2010,08,13,05,05,9.00
2010,08,13,05,06,9.00
2010,08,13,05,07,9.00
2010,08,13,05,08,9.00
2010,08,13,05,09,9.00
2010,08,13,05,10,9.00
2010,08,13,05,11,9.00
2010,08,13,05,12,9.00
2010,08,13,05,13,9.00
2010,08,13,05,14,9.00
2010,08,13,05,15,9.00
2010,08,13,05,16,9.10
2010,08,13,05,17,9.10
2010,08,13,05,18,9.10
2010,08,13,05,19,9.10
2010,08,13,05,20,9.10
2010,08,13,05,21,9.10
2010,08,13,05,22,9.10
2010,08,13,05,23,9.10
2010,08,13,05,24,9.10
2010,08,13,05,25,9.10
2010,08,13,05,26,9.10
2010,08,13,05,27,9.10
2010,08,13,05,28,9.10
2010,08,13,05,29,9.10
2010,08,13,05,30,9.10
2010,08,13,05,31,10.30
2010,08,13,05,32,10.30
2010,08,13,05,33,10.30
2010,08,13,05,34,10.30
2010,08,13,05,35,10.30
2010,08,13,05,36,10.30
2010,08,13,05,37,10.30
2010,08,13,05,38,10.30
2010,08,13,05,39,10.30
2010,08,13,05,40,10.30
2010,08,13,05,41,10.30
2010,08,13,05,42,10.30
2010,08,13,05,43,10.30
2010,08,13,05,44,10.30
2010,08,13,05,45,10.30
2010,08,13,05,46,11.50
2010,08,13,05,47,11.50
2010,08,13,05,48,11.50
2010,08,13,05,49,11.50
2010,08,13,05,50,11.50
2010,08,13,05,51,11.50
2010,08,13,05,52,11.50
2010,08,13,05,53,11.50
2010,08,13,05,54,11.50
2010,08,13,05,55,11.50
2010,08,13,05,56,11.50
2010,08,13,05,57,11.50
2010,08,13,05,58,11.50
2010,08,13,05,59,11.50
2010,08,13,06,00,11.50
2010,08,13,06,01,11.60
2010,08,13,06,02,11.60
2010,08,13,06,03,11.60
2010,08,13,06,04,11.60
2010,08,13,06,05,11.60
2010,08,13,06,06,11.60
2010,08,13,06,07,11.60
2010,08,13,06,08,11.60
2010,08,13,06,09,11.60
2010,08,13,06,10,11.60
2010,08,13,06,11,11.60
2010,08,13,06,12,11.60
2010,08,13,06,13,11.60
2010,08,13,06,14,11.60
2010,08,13,06,15,11.60
2010,08,13,06,16,10.40
2010,08,13,06,17,10.40
2010,08,13,06,18,10.40
2010,08,13,06,19,10.40
2010,08,13,06,20,10.40
2010,08,13,06,21,10.40
2010,08,13,06,22,10.40
2010,08,13,06,23,10.40
2010,08,13,06,24,10.40
2010,08,13,06,25,10.40
2010,08,13,06,26,10.40
2010,08,13,06,27,10.40
2010,08,13,06,28,10.40
2010,08,13,06,29,10.40
2010,08,13,06,30,10.40
2010,08,13,06,31,10.40
2010,08,13,06,32,10.20
2010,08,13,06,33,10.20
2010,08,13,06,34,10.20
2010,08,13,06,35,10.20
2010,08,13,06,36,10.20
2010,08,13,06,37,10.20
2010,08,13,06,38,10.20
2010,08,13,06,39,10.20
2010,08,13,06,40,10.20
2010,08,13,06,41,10.20
2010,08,13,06,42,10.20
2010,08,13,06,43,10.20
2010,08,13,06,44,10.20
2010,08,13,06,45,10.20
2010,08,13,06,46,10.20
2010,08,13,06,47,10.20
2010,08,13,06,48,10.20
2010,08,13,06,49,10.20
2010,08,13,06,50,10.20
2010,08,13,06,51,10.20
2010,08,13,06,52,10.20
2010,08,13,06,53,10.20
2010,08,13,06,54,10.20
2010,08,13,06,55,10.20
2010,08,13,06,56,10.20
2010,08,13,06,57,10.20
2010,08,13,06,58,10.20
2010,08,13,06,59,10.20
2010,08,13,07,00,10.20
2010,08,13,07,01,10.90
2010,08,13,07,02,10.90
2010,08,13,07,03,10.90
2010,08,13,07,04,10.90
2010,08,13,07,05,10.90
2010,08,13,07,06,10.90
2010,08,13,07,07,10.90
2010,08,13,07,08,10.90
2010,08,13,07,09,10.90
2010,08,13,07,10,10.90
2010,08,13,07,11,10.90
2010,08,13,07,12,10.90
2010,08,13,07,13,10.90
2010,08,13,07,14,10.90
2010,08,13,07,15,10.90
2010,08,13,07,16,11.60
2010,08,13,07,17,11.60
2010,08,13,07,18,11.60
2010,08,13,07,19,11.60
2010,08,13,07,20,11.60
2010,08,13,07,21,11.60
2010,08,13,07,22,11.60
2010,08,13,07,23,11.60
2010,08,13,07,24,11.60
2010,08,13,07,25,11.60
2010,08,13,07,26,11.60
2010,08,13,07,27,11.60
2010,08,13,07,28,11.60
2010,08,13,07,29,11.60
2010,08,13,07,30,11.60
2010,08,13,07,31,11.50
2010,08,13,07,32,11.50
2010,08,13,07,33,11.50
2010,08,13,07,34,11.50
2010,08,13,07,35,11.50
2010,08,13,07,36,11.50
2010,08,13,07,37,11.50
2010,08,13,07,38,11.50
2010,08,13,07,39,11.50
2010,08,13,07,40,11.50
2010,08,13,07,41,11.50
2010,08,13,07,42,11.50
2010,08,13,07,43,11.50
2010,08,13,07,44,11.50
2010,08,13,07,45,11.50
2010,08,13,07,46,11.90
2010,08,13,07,47,11.90
2010,08,13,07,48,11.90
2010,08,13,07,49,11.90
2010,08,13,07,50,11.90
2010,08,13,07,51,11.90
2010,08,13,07,52,11.90
2010,08,13,07,53,11.90
2010,08,13,07,54,11.90
2010,08,13,07,55,11.90
2010,08,13,07,56,11.90
2010,08,13,07,57,11.90
2010,08,13,07,58,11.90
2010,08,13,07,59,11.90
2010,08,13,08,00,11.90
2010,08,13,08,01,12.10
2010,08,13,08,02,12.10
2010,08,13,08,03,12.10
2010,08,13,08,04,12.10
2010,08,13,08,05,12.10
2010,08,13,08,06,12.10
2010,08,13,08,07,12.10
2010,08,13,08,08,12.10
2010,08,13,08,09,12.10
2010,08,13,08,10,12.10
2010,08,13,08,11,12.10
2010,08,13,08,12,12.10
2010,08,13,08,13,12.10
2010,08,13,08,14,12.10
2010,08,13,08,15,12.10
2010,08,13,08,16,11.90
2010,08,13,08,17,11.90
2010,08,13,08,18,11.90
2010,08,13,08,19,11.90
2010,08,13,08,20,11.90
2010,08,13,08,21,11.90
2010,08,13,08,22,11.90
2010,08,13,08,23,11.90
2010,08,13,08,24,11.90
2010,08,13,08,25,11.90
2010,08,13,08,26,11.90
2010,08,13,08,27,11.90
2010,08,13,08,28,11.90
2010,08,13,08,29,11.90
2010,08,13,08,30,11.90
2010,08,13,08,31,12.30
2010,08,13,08,32,12.30
2010,08,13,08,33,12.30
2010,08,13,08,34,12.30
2010,08,13,08,35,12.30
2010,08,13,08,36,12.30
2010,08,13,08,37,12.30
2010,08,13,08,38,12.30
2010,08,13,08,39,12.30
2010,08,13,08,40,12.30
2010,08,13,08,41,12.30
2010,08,13,08,42,12.30
2010,08,13,08,43,12.30
2010,08,13,08,44,12.30
2010,08,13,08,45,12.30
2010,08,13,08,46,12.80
2010,08,13,08,47,12.80
2010,08,13,08,48,12.80
2010,08,13,08,49,12.80
2010,08,13,08,50,12.80
2010,08,13,08,51,12.80
2010,08,13,08,52,12.80
2010,08,13,08,53,12.80
2010,08,13,08,54,12.80
2010,08,13,08,55,12.80
2010,08,13,08,56,12.80
2010,08,13,08,57,12.80
2010,08,13,08,58,12.80
2010,08,13,08,59,12.80
2010,08,13,09,00,12.80
2010,08,13,09,01,13.40
2010,08,13,09,02,13.40
2010,08,13,09,03,13.40
2010,08,13,09,04,13.40
2010,08,13,09,05,13.40
2010,08,13,09,06,13.40
2010,08,13,09,07,13.40
2010,08,13,09,08,13.40
2010,08,13,09,09,13.40
2010,08,13,09,10,13.40
2010,08,13,09,11,13.40
2010,08,13,09,12,13.40
2010,08,13,09,13,13.40
2010,08,13,09,14,13.40
2010,08,13,09,15,13.40
2010,08,13,09,16,13.30
2010,08,13,09,17,13.30
2010,08,13,09,18,13.30
2010,08,13,09,19,13.30
2010,08,13,09,20,13.30
2010,08,13,09,21,13.30
2010,08,13,09,22,13.30
2010,08,13,09,23,13.30
2010,08,13,09,24,13.30
2010,08,13,09,25,13.30
2010,08,13,09,26,13.30
2010,08,13,09,27,13.30
2010,08,13,09,28,13.30
2010,08,13,09,29,13.30
2010,08,13,09,30,13.30
2010,08,13,09,31,14.30
2010,08,13,09,32,14.30
2010,08,13,09,33,14.30
2010,08,13,09,34,14.30
2010,08,13,09,35,14.30
2010,08,13,09,36,14.30
2010,08,13,09,37,14.30
2010,08,13,09,38,14.30
2010,08,13,09,39,14.30
2010,08,13,09,40,14.30
2010,08,13,09,41,14.30
2010,08,13,09,42,14.30
2010,08,13,09,43,14.30
2010,08,13,09,44,14.30
2010,08,13,09,45,14.30
2010,08,13,09,46,14.90
2010,08,13,09,47,14.90
2010,08,13,09,48,14.90
2010,08,13,09,49,14.90
2010,08,13,09,50,14.90
2010,08,13,09,51,14.90
2010,08,13,09,52,14.90
2010,08,13,09,53,14.90
2010,08,13,09,54,14.90
2010,08,13,09,55,14.90
2010,08,13,09,56,14.90
2010,08,13,09,57,14.90
2010,08,13,09,58,14.90
2010,08,13,09,59,14.90
2010,08,13,10,00,14.90
2010,08,13,10,01,15.40
2010,08,13,10,02,15.40
2010,08,13,10,03,15.40
2010,08,13,10,04,15.40
2010,08,13,10,05,15.40
2010,08,13,10,06,15.40
2010,08,13,10,07,15.40
2010,08,13,10,08,15.40
2010,08,13,10,09,15.40
2010,08,13,10,10,15.40
2010,08,13,10,11,15.40
2010,08,13,10,12,15.40
2010,08,13,10,13,15.40
2010,08,13,10,14,15.40
2010,08,13,10,15,15.40
2010,08,13,10,16,15.40
2010,08,13,10,17,15.40
2010,08,13,10,18,15.40
2010,08,13,10,19,15.40
2010,08,13,10,20,15.40
2010,08,13,10,21,15.40
2010,08,13,10,22,15.40
2010,08,13,10,23,15.40
2010,08,13,10,24,15.40
2010,08,13,10,25,15.40
2010,08,13,10,26,15.40
2010,08,13,10,27,15.40
2010,08,13,10,28,15.40
2010,08,13,10,29,15.40
2010,08,13,10,30,15.40
2010,08,13,10,31,15.10
2010,08,13,10,32,15.10
2010,08,13,10,33,15.10
2010,08,13,10,34,15.10
2010,08,13,10,35,15.10
2010,08,13,10,36,15.10
2010,08,13,10,37,15.10
2010,08,13,10,38,15.10
2010,08,13,10,39,15.10
2010,08,13,10,40,15.10
2010,08,13,10,41,15.10
2010,08,13,10,42,15.10
2010,08,13,10,43,15.10
2010,08,13,10,44,15.10
2010,08,13,10,45,15.10
2010,08,13,10,46,15.10
2010,08,13,10,47,15.10
2010,08,13,10,48,15.10
2010,08,13,10,49,15.10
2010,08,13,10,50,15.10
2010,08,13,10,51,15.10
2010,08,13,10,52,15.10
2010,08,13,10,53,15.10
2010,08,13,10,54,15.10
2010,08,13,10,55,15.10
2010,08,13,10,56,15.10
2010,08,13,10,57,15.10
2010,08,13,10,58,15.10
2010,08,13,10,59,15.10
2010,08,13,11,00,15.10
2010,08,13,11,01,15.60
2010,08,13,11,02,15.60
2010,08,13,11,03,15.60
2010,08,13,11,04,15.60
2010,08,13,11,05,15.60
2010,08,13,11,06,15.60
2010,08,13,11,07,15.60
2010,08,13,11,08,15.60
2010,08,13,11,09,15.60
2010,08,13,11,10,15.60
2010,08,13,11,11,15.60
2010,08,13,11,12,15.60
2010,08,13,11,13,15.60
2010,08,13,11,14,15.60
2010,08,13,11,15,15.60
2010,08,13,11,16,16.10
2010,08,13,11,17,16.10
2010,08,13,11,18,16.10
2010,08,13,11,19,16.10
2010,08,13,11,20,16.10
2010,08,13,11,21,16.10
2010,08,13,11,22,16.10
2010,08,13,11,23,16.10
2010,08,13,11,24,16.10
2010,08,13,11,25,16.10
2010,08,13,11,26,16.10
2010,08,13,11,27,16.10
2010,08,13,11,28,16.10
2010,08,13,11,29,16.10
2010,08,13,11,30,16.10
2010,08,13,11,31,15.90
2010,08,13,11,32,15.90
2010,08,13,11,33,15.90
2010,08,13,11,34,15.90
2010,08,13,11,35,15.90
2010,08,13,11,36,15.90
2010,08,13,11,37,15.90
2010,08,13,11,38,15.90
2010,08,13,11,39,15.90
2010,08,13,11,40,15.90
2010,08,13,11,41,15.90
2010,08,13,11,42,15.90
2010,08,13,11,43,15.90
2010,08,13,11,44,15.90
2010,08,13,11,45,15.90
2010,08,13,11,46,16.10
2010,08,13,11,47,16.10
2010,08,13,11,48,16.10
2010,08,13,11,49,16.10
2010,08,13,11,50,16.10
2010,08,13,11,51,16.10
2010,08,13,11,52,16.10
2010,08,13,11,53,16.10
2010,08,13,11,54,16.10
2010,08,13,11,55,16.10
2010,08,13,11,56,16.10
2010,08,13,11,57,16.10
2010,08,13,11,58,16.10
2010,08,13,11,59,16.10
2010,08,13,12,00,16.10
2010,08,13,12,01,17.20
2010,08,13,12,02,17.20
2010,08,13,12,03,17.20
2010,08,13,12,04,17.20
2010,08,13,12,05,17.20
2010,08,13,12,06,17.20
2010,08,13,12,07,17.20
2010,08,13,12,08,17.20
2010,08,13,12,09,17.20
2010,08,13,12,10,17.20
2010,08,13,12,11,17.20
2010,08,13,12,12,17.20
2010,08,13,12,13,17.20
2010,08,13,12,14,17.20
2010,08,13,12,15,17.20
